Вернуться в каталог

GEESAT 5-11

АктивенСвязьLEO
NORAD 65560·PAYLOAD·🇨🇳 China

Запущен Sep 8, 2025 с Yellow Sea Launch Area

Loading…

Ближайшие Пролёты (ближайшие 24 часа)

TLE

СвежийSource: Space-Track

Эпоха: Sep 14, 2026, 22:46 UTC

1 65560U 25201L   26257.94899904  .00001199  00000-0  16802-3 0  9996
2 65560  49.9892 342.3870 0008448 324.3591  35.6783 14.84396631 55156

Отслеживайте GEESAT 5-11 в реальном времени с AllMySat

Download on the App Store